Jackson, MI

9:24 AM EDT on May 26, 2017 (GMT -0400)
Jackson County-Reynolds

Weather History for KJXN - May, 2013

Change the Weather History Date:

Friday, May 10, 2013

  Actual Average Record
Temperature  
Mean Temperature 54 °F 56 °F  
Max Temperature 66 °F 67 °F 86 °F (1979)
Min Temperature 42 °F 44 °F 21 °F (1966)
Degree Days  
Heating Degree Days 11 10  
Month to date heating degree days 29 110  
Since 1 July heating degree days 6364 6456  
Cooling Degree Days 0 1  
Month to date cooling degree days 7 3  
Year to date cooling degree days 7 9  
Growing Degree Days 3 (Base 50)    
Moisture  
Dew Point 51 °F    
Average Humidity 84    
Maximum Humidity 96    
Minimum Humidity 72    
Precipitation  
Precipitation 0.22 in 0.10 in 1.58 in (1981)
Month to date precipitation 0.22 1.00  
Year to date precipitation 11.37 8.29  
Sea Level Pressure  
Sea Level Pressure 29.81 in    
Wind  
Wind Speed 7 mph (NNE)    
Max Wind Speed 17 mph    
Max Gust Speed 22 mph    
Visibility 8 miles    
Events Rain    
T = Trace of Precipitation, MM = Missing Value Source: NWS Daily Summary

Daily Weather History Graph

Daily Weather History Graph

Search for Another Location

Airport or City:

Trip Planner

Search our weather history database for the weather conditions in past years. The results will help you decide how hot, cold, wet, or windy it might be!

Date:

Astronomy

May. 10, 2013 Rise Set
Actual Time 6:21 AM EDT 8:47 PM EDT
Civil Twilight 5:50 AM EDT 9:19 PM EDT
Nautical Twilight 5:11 AM EDT 9:58 PM EDT
Astronomical Twilight 4:27 AM EDT 10:42 PM EDT
Moon 6:45 AM EDT (5/10) 9:36 PM EDT (5/10)
Length of Visible Light 15h 28m
Length of Day
14h 25m
New Moon, 0% of the Moon is Illuminated
May 10
New Moon
May 18
First Quarter
May 25
Full
May 31
Last Quarter
Jun 8
New

Hourly Weather History & Observations

Time (EDT) Temp. Windchill Dew Point Humidity Pressure Visibility Wind Dir Wind Speed Gust Speed Precip Events Conditions
12:56 AM 62.1 °F - 55.0 °F 78% 29.91 in 10.0 mi SSE 4.6 mph - 0.00 in   Overcast
1:56 AM 63.0 °F - 54.0 °F 72% 29.87 in 10.0 mi SSE 4.6 mph - N/A   Overcast
2:56 AM 61.0 °F - 55.9 °F 83% 29.84 in 10.0 mi ESE 4.6 mph - 0.00 in   Overcast
3:56 AM 59.0 °F - 55.9 °F 90% 29.82 in 7.0 mi SE 5.8 mph - 0.05 in Rain Light Rain
4:51 AM 59.0 °F - 57.2 °F 94% 29.80 in 4.0 mi SE 8.1 mph - 0.10 in Rain Light Rain
4:56 AM 59.0 °F - 57.0 °F 93% 29.79 in 4.0 mi SE 8.1 mph - 0.11 in Rain Rain
5:08 AM 57.2 °F - 55.4 °F 94% 29.79 in 2.5 mi SE 10.4 mph - 0.02 in Rain Light Rain
5:18 AM 57.2 °F - 55.4 °F 94% 29.79 in 4.0 mi ESE 11.5 mph - 0.02 in Rain Light Rain
5:35 AM 57.2 °F - 57.2 °F 100% 29.78 in 2.5 mi SSE 5.8 mph - 0.03 in Rain Light Rain
5:48 AM 59.0 °F - 57.2 °F 94% 29.77 in 3.0 mi SE 6.9 mph - 0.05 in Rain Light Rain
5:56 AM 59.0 °F - 57.0 °F 93% 29.76 in 3.0 mi SE 5.8 mph - 0.06 in Rain Light Rain
6:19 AM 59.0 °F - 57.2 °F 94% 29.77 in 9.0 mi South 6.9 mph - 0.00 in   Overcast
6:56 AM 60.1 °F - 57.9 °F 93% 29.76 in 7.0 mi SSW 6.9 mph - 0.00 in   Overcast
7:18 AM 60.8 °F - 57.2 °F 88% 29.77 in 7.0 mi SSW 10.4 mph - N/A   Overcast
7:56 AM 62.1 °F - 57.9 °F 86% 29.77 in 8.0 mi SW 6.9 mph - N/A   Mostly Cloudy
8:04 AM 62.6 °F - 57.2 °F 82% 29.78 in 8.0 mi SW 9.2 mph - N/A   Mostly Cloudy
8:56 AM 63.0 °F - 59.0 °F 87% 29.77 in 9.0 mi WSW 6.9 mph - N/A   Overcast
9:24 AM 62.6 °F - 57.2 °F 82% 29.78 in 10.0 mi SW 10.4 mph - N/A   Overcast
9:56 AM 63.0 °F - 57.9 °F 84% 29.77 in 10.0 mi SW 12.7 mph 19.6 mph N/A   Overcast
10:56 AM 64.9 °F - 57.9 °F 78% 29.76 in 10.0 mi SW 11.5 mph 19.6 mph N/A   Mostly Cloudy
11:56 AM 59.0 °F - 55.0 °F 87% 29.78 in 10.0 mi North 8.1 mph - N/A   Overcast
12:08 PM 57.2 °F - 53.6 °F 88% 29.80 in 10.0 mi North 6.9 mph - N/A   Overcast
12:43 PM 57.2 °F - 53.6 °F 88% 29.80 in 10.0 mi North 5.8 mph - N/A   Overcast
12:56 PM 55.9 °F - 51.1 °F 84% 29.80 in 10.0 mi North 6.9 mph - N/A   Overcast
1:30 PM 57.2 °F - 51.8 °F 82% 29.80 in 10.0 mi North 9.2 mph - N/A   Mostly Cloudy
1:47 PM 55.4 °F - 50.0 °F 82% 29.81 in 10.0 mi North 6.9 mph - N/A   Mostly Cloudy
1:56 PM 55.9 °F - 50.0 °F 80% 29.81 in 10.0 mi Variable 4.6 mph - N/A   Mostly Cloudy
2:06 PM 55.4 °F - 50.0 °F 82% 29.81 in 10.0 mi North 8.1 mph - N/A   Overcast
2:56 PM 55.0 °F - 48.9 °F 80% 29.82 in 10.0 mi North 6.9 mph - N/A   Overcast
3:06 PM 55.4 °F - 48.2 °F 77% 29.82 in 10.0 mi North 9.2 mph - N/A   Overcast
3:56 PM 52.0 °F - 46.9 °F 83% 29.82 in 10.0 mi North 9.2 mph - N/A   Overcast
4:56 PM 50.0 °F - 45.0 °F 83% 29.82 in 10.0 mi North 5.8 mph - N/A   Overcast
5:56 PM 46.9 °F - 43.0 °F 86% 29.83 in 10.0 mi North 9.2 mph - N/A   Overcast
6:56 PM 46.0 °F 42.5 °F 41.0 °F 83% 29.83 in 10.0 mi North 6.9 mph - N/A   Overcast
7:56 PM 45.0 °F 40.6 °F 41.0 °F 86% 29.85 in 8.0 mi North 8.1 mph - N/A   Overcast
8:56 PM 43.0 °F 37.7 °F 41.0 °F 93% 29.87 in 4.0 mi NNW 9.2 mph - N/A   Overcast
9:03 PM 42.8 °F 38.0 °F 41.0 °F 93% 29.86 in 4.0 mi North 8.1 mph - N/A   Overcast
9:56 PM 43.0 °F 37.7 °F 39.9 °F 89% 29.89 in 9.0 mi North 9.2 mph 18.4 mph N/A   Overcast
10:09 PM 42.8 °F 38.0 °F 39.2 °F 87% 29.89 in 10.0 mi North 8.1 mph - N/A   Overcast
10:56 PM 42.1 °F 38.4 °F 39.9 °F 92% 29.90 in 10.0 mi North 5.8 mph - N/A   Overcast
11:56 PM 42.1 °F 37.1 °F 39.9 °F 92% 29.90 in 10.0 mi NNW 8.1 mph - N/A   Overcast